STARLINK-2475 (48133 NORAD) Tracking and Keplerian Element Data

This shows tracking and keplerian element data for the satellite.

Feedback or suggestion? Click here.




ElementValue
Catalog48133
NameSTARLINK-2475
Epoch Orbit195
Epoch Day173.91668981
Epoch Year2021
RAAN336.4572
Inclination53.0528
Eccentricity0.0001363
Argument of Perigee91.3707
Mean Anonmoly110.5203
Mean Motion15.06367321
Decay Rate0.0004415
L11 48133U 21027AT 21173.91668981 .00044150 00000-0 29670-2 0 9993
L22 48133 53.0528 336.4572 0001363 91.3707 110.5203 15.06367321 1955

Live tracking and technical data element details for STARLINK-2475 (NORAD 48133). STARLINK-2475 can be tracked NOW for your location showing map with azimuth and elevation plus other details from your city location.

Track the satellite on the map from your city or location and see movement details for azimuth, elevation, latitude, longitude, range, height, and movement on the map or in text.







IsCatalogInMostPopularTable: catalog: 48133, numindb: 34
Update: records affected: 1



GetName: 48133 STARLINK-2475

Hit Count: updated at: Thu, 24 Jun 2021 03:39:37 GMT